Regional Weather Roundup
Issued by NWS

Home | Current Version | Previous Version | Graphics & Text | Print | Product List | Glossary On
Versions: 1 2 3 4 5 6 7 8 9 10 11 12 13 14 15 16 17 18 19 20 21 22 23 24 25 26 27 28 29 30 31 32 33 34 35 36 37 38 39 40 41 42 43 44 45 46 47 48 49 50
000
ASUS43 KLSX 231207
RWRMO

WEATHER SUMMARY FOR MISSOURI
NATIONAL WEATHER SERVICE SPRINGFIELD MO
700 AM CDT WED APR 23 2014

NOTE: "FAIR" INDICATES FEW OR NO CLOUDS BELOW 12,000 FEET WITH NO
       SIGNIFICANT WEATHER AND/OR OBSTRUCTIONS TO VISIBILITY.
       CURRENT SKY AND/OR WEATHER CONDITIONS ARE NOT AVAILABLE FOR
       CHILLICOTHE AND FARMINGTON.

MOZ001>031-035>038-043-044-053-054-231300-
...NORTHERN AND WESTERN MISSOURI...

CITY           SKY/WX    TMP DP  RH WIND       PRES   REMARKS
KANSAS CTY INT LGT RAIN  54  35  48 SE10      30.00R
6HR MIN TEMP:  54; 6HR MAX TEMP:  58; 6HR PCP: TRACE;

KANSAS C DTWN  CLOUDY    57  34  41 SE10G20   29.99F
6HR MIN TEMP:  55; 6HR MAX TEMP:  58;

LEE`S SUMMIT   MOCLDY    53  35  50 SE8       30.00F
6HR MIN TEMP:  52; 6HR MAX TEMP:  55;

ST JOSEPH      CLOUDY    55  35  47 SE10      29.99R
6HR MIN TEMP:  54; 6HR MAX TEMP:  57; 6HR PCP: TRACE;

CHILLICOTHE      N/A     51  34  52 E7        30.04S
6HR MIN TEMP:  50; 6HR MAX TEMP:  54;

KIRKSVILLE     CLOUDY    47  33  58 E9        30.08R
6HR MIN TEMP:  44; 6HR MAX TEMP:  50;


$$
MOZ066>068-077>081-088>096-101>105-231300-
...SOUTHWEST MISSOURI...

CITY           SKY/WX    TMP DP  RH WIND       PRES   REMARKS
SPRINGFIELD    PTCLDY    51  35  54 SE8       30.02R
6HR MIN TEMP:  46; 6HR MAX TEMP:  54;

JOPLIN         MOCLDY    51  37  58 E6        29.98R
6HR MIN TEMP:  48; 6HR MAX TEMP:  53;


$$
MOZ032>034-039>042-045>050-055>058-069>072-231300-
...CENTRAL MISSOURI...

CITY           SKY/WX    TMP DP  RH WIND       PRES   REMARKS
COLUMBIA       PTCLDY    46  34  62 E7        30.06R
6HR MIN TEMP:  43; 6HR MAX TEMP:  50;

JEFFERSON CITY PTCLDY    40  36  86 SE7       30.06R
6HR MIN TEMP:  40; 6HR MAX TEMP:  48;

ROLLA          CLEAR     45  33  63 E8        30.04S
6HR MIN TEMP:  42; 6HR MAX TEMP:  49;

SEDALIA        CLOUDY    50  38  63 SE6       30.06R
6HR MIN TEMP:  47; 6HR MAX TEMP:  52;

WHITEMAN AFB   MOCLDY    49  32  51 SE6       30.03R
OSAGE BEACH    PTCLDY    45  36  70 MISG        N/A

$$
MOZ051-052-059>065-231300-
...EAST CENTRAL MISSOURI...

CITY           SKY/WX    TMP DP  RH WIND       PRES   REMARKS
ST LOUIS INTL  PTCLDY    48  35  60 E9        30.10R
6HR MIN TEMP:  47; 6HR MAX TEMP:  53;

SPIRIT OF STL  CLEAR     41  37  86 CALM      30.10R
6HR MIN TEMP:  37; 6HR MAX TEMP:  44;

ST CHARLES     CLEAR     45  36  70 E10       30.10R
6HR MIN TEMP:  44; 6HR MAX TEMP:  54;


$$
MOZ072>076-082>087-097>100-106>115-231300-
...SOUTH CENTRAL AND SOUTHEAST MISSOURI...

CITY           SKY/WX    TMP DP  RH WIND       PRES   REMARKS
CAPE GIRARDEAU CLEAR     42  40  92 CALM      30.07R
6HR MIN TEMP:  40; 6HR MAX TEMP:  49;

FARMINGTON     CLEAR     39  36  87 CALM      30.10R
6HR MIN TEMP:  37; 6HR MAX TEMP:  52;

POPLAR BLUFF   CLEAR     45  39  79 N3        30.05R
6HR MIN TEMP:  44; 6HR MAX TEMP:  51;

WEST PLAINS    CLEAR     48  31  51 E5        30.06R
6HR MIN TEMP:  44; 6HR MAX TEMP:  53;


$$



USA.gov is the U.S. government's official web portal to all federal, state and local government web resources and services.